[[{"header":{"parameterUnit":"m.s-1","parameterCategory":1,"la1":30.2991,"la2":30.254,"lo1":-89.0895,"lo2":-89.0444,"dy":0.0017,"dx":0.0017,"nx":28,"ny":28,"refTime":"2025-03-27T21:00:00:Z","depth":0,"parameterNumber":2,"parameterNumberName":"U-component_of_WINDS"},"data":[0,0,0,0,0,0,0,0,0,0,0,0,0,0,0,0,0,0,0,0,0,0,0,0,0,0,0,0,0,0,0,0,0,0,0,0,0,0,0,0,0,0,0,0,0,0,0,0,0,0,0,0,0,0,0,0,0,0,-5.8309,-5.8311,0,-5.8439,-5.8441,-5.8442,-5.8451,-5.845,-5.8448,-5.8447,-5.858,-5.8585,-5.859,0,0,0,0,0,0,0,0,0,0,0,0,0,-5.8069,-5.8074,-5.8309,-5.8311,-5.8312,-5.8439,-5.8441,-5.8443,-5.8451,-5.845,-5.8448,-5.8446,-5.8578,-5.8584,-5.859,0,0,0,0,0,0,0,0,0,0,0,0,0,-5.8184,-5.8075,-5.8309,-5.8332,-5.8335,-5.8439,-5.8441,-5.8443,-5.8452,-5.845,-5.8447,-5.8445,-5.8577,-5.8584,-5.8591,-5.868,0,0,-5.8613,-5.8617,0,0,0,0,0,0,0,0,-5.8177,-5.8193,-5.8327,-5.8331,-5.8335,-5.8427,-5.8405,-5.8523,-5.8452,-5.8408,-5.8447,-5.8444,-5.8531,-5.8542,-5.8571,-5.8686,-5.8692,-5.8614,-5.8619,-5.8622,-5.8624,0,0,0,0,0,0,0,-5.8169,-5.8187,-5.8361,-5.8329,-5.8334,-5.8336,-5.835,-5.8428,-5.848,-5.8411,-5.8412,-5.8428,-5.8532,-5.8564,-5.8574,-5.8694,-5.8614,-5.862,-5.8625,-5.8628,-5.8891,-5.8893,0,0,0,0,0,0,-5.8157,-5.818,-5.8357,-5.8365,-5.8249,-5.8342,-5.8358,-5.8399,-5.8479,-5.8489,-5.8429,-5.8427,-5.8552,-5.8566,-5.8579,-5.8689,-5.8622,-5.8629,-5.8633,-5.8888,-5.8891,-5.8894,0,0,0,0,0,0,-5.8152,-5.8173,-5.8351,-5.8273,-5.8296,-5.8349,-5.8395,-5.8403,-5.8434,-5.8493,-5.8502,-5.8452,-5.8551,-5.8569,-5.8655,-5.8693,-5.8632,-5.8639,-5.8885,-5.8889,-5.8893,-5.8908,0,0,0,0,0,0,-5.8145,-5.8171,-5.8204,-5.8274,-5.83,-5.8425,-5.8398,-5.8407,-5.8447,-5.8446,-5.8516,-5.8526,-5.8551,-5.8644,-5.8663,-5.8702,-5.8644,-5.8882,-5.8887,-5.8891,-5.8904,-5.8912,-5.8919,0,0,0,0,0,-5.8136,-5.8204,-5.8206,-5.8227,-5.8343,-5.8427,-5.8442,-5.847,-5.845,-5.8485,-5.8523,-5.8523,-5.8687,-5.8653,-5.8674,-5.8716,-5.8879,-5.8885,-5.8891,-5.8901,-5.8911,-5.8919,0,0,0,0,0,0,-5.8137,-5.8213,-5.8217,-5.8308,-5.8361,-5.8428,-5.8472,-5.8479,-5.8538,-5.8534,-5.8566,-5.8582,-5.8668,-5.8701,-5.8662,-5.8808,-5.8781,-5.8791,-5.8782,-5.8791,-5.8798,-5.8787,-5.865,0,0,0,0,0,-5.8148,-5.8209,-5.8273,-5.8347,-5.8374,-5.8419,-5.8456,-5.8473,-5.8529,-5.8551,-5.8595,-5.865,-5.8714,-5.8755,-5.8817,-5.8911,-5.8926,-5.895,-5.8957,-5.8963,-5.8971,-5.9023,-5.9034,-5.8913,-5.8913,-5.8913,0,0,-5.8171,-5.822,-5.8256,-5.8349,-5.8392,-5.8454,-5.8437,-5.8504,-5.8551,-5.8562,-5.8645,-5.868,-5.8744,-5.8834,-5.8876,-5.8865,-5.9008,-5.897,-5.8974,-5.8979,-5.903,-5.9042,-5.9052,-5.8917,-5.8916,-5.8915,0,0,-5.8244,-5.8288,-5.8355,-5.8399,-5.8464,-5.8494,-5.8511,-5.8578,-5.8601,-5.8686,-5.8695,-5.8753,-5.8862,-5.8906,-5.8943,-5.9037,-5.9039,-5.9056,-5.9092,-5.9143,-5.9152,-5.9161,-5.9193,-5.9205,-5.9064,-5.9064,-5.9064,0,-5.8264,-5.8359,-5.8388,-5.8456,-5.8496,-5.851,-5.8578,-5.8619,-5.8702,-5.873,-5.8716,-5.8854,-5.8897,-5.8998,-5.9021,-5.9052,-5.9071,-5.9047,-5.9149,-5.9158,-5.9166,-5.9197,-5.921,-5.9066,-5.9066,-5.9065,-5.9065,0,-5.838,-5.8446,-5.8492,-5.8571,-5.8618,-5.8685,-5.8726,-5.8769,-5.8783,-5.8815,-5.8902,-5.8956,-5.9028,-5.9055,-5.9069,-5.9159,-5.9149,-5.9142,-5.9115,-5.9179,-5.9208,-5.9221,-5.9068,-5.9067,-5.9067,-5.9067,0,0,-5.8454,-5.8551,-5.8567,-5.8604,-5.8678,-5.873,-5.8799,-5.8871,-5.8907,-5.8965,-5.9023,-5.9116,-5.9111,-5.9153,-5.9173,-5.9218,-5.9287,-5.9205,-5.9207,-5.9217,-5.9389,-5.9393,-5.9406,-5.9291,-5.9294,-5.9296,-5.9384,0,-5.8534,-5.8656,-5.8686,-5.8791,-5.8852,-5.8867,-5.8928,-5.898,-5.9013,-5.907,-5.9106,-5.9171,-5.9159,-5.9185,-5.923,-5.9269,-5.9322,-5.9264,-5.9345,-5.9348,-5.9326,-5.9422,-5.9425,-5.9506,-5.9396,-5.9398,-5.9399,0,-5.8644,-5.8704,-5.8814,-5.8882,-5.8909,-5.8962,-5.9031,-5.9086,-5.9146,-5.9167,-5.9215,-5.9231,-5.9304,-5.9276,-5.9378,-5.9337,-5.9373,-5.9398,-5.9402,-5.9408,-5.9375,-5.9429,-5.9532,-5.9543,-5.9418,-5.9417,-5.9415,0,-5.8685,-5.8794,-5.8874,-5.8905,-5.8986,-5.9024,-5.9059,-5.9118,-5.916,-5.9221,-5.9248,-5.9317,-5.9354,-5.9407,-5.9441,-5.9418,-5.954,-5.9515,-5.9558,-5.9557,-5.9581,-5.9578,-5.9689,-5.9608,-5.9607,-5.9607,-5.9607,0,-5.8771,-5.8837,-5.8894,-5.8943,-5.9019,-5.9054,-5.9128,-5.9164,-5.9217,-5.9273,-5.9292,-5.9345,-5.9388,-5.9447,-5.9475,-5.9555,-5.9572,-5.959,-5.9596,-5.9587,-5.9585,-5.9609,-5.9604,-5.961,-5.961,-5.9609,-5.9609,0,-5.8828,-5.8869,-5.8957,-5.9028,-5.9047,-5.91,-5.916,-5.9209,-5.9243,-5.9315,-5.9334,-5.9387,-5.9458,-5.9498,-5.9588,-5.9606,-5.9694,-5.9699,-5.9673,-5.9676,-5.9716,-5.9711,-5.9844,-5.9863,-5.9771,-5.9772,-5.9773,0,-5.8879,-5.8931,-5.9007,-5.9046,-5.9082,-5.9146,-5.9189,-5.9226,-5.927,-5.9344,-5.9384,-5.9456,-5.9516,-5.9629,-5.9676,-5.9744,-5.975,-5.9792,-5.976,-5.9749,-5.9748,-5.9744,-5.9749,-5.9796,-5.9797,-5.9798,-5.9798,0,-5.8964,-5.8982,-5.9043,-5.9112,-5.9162,-5.9218,-5.9273,-5.9305,-5.9352,-5.9401,-5.9473,-5.952,-5.9612,-5.9683,-5.9756,-5.9793,-5.9804,-5.9808,-5.9822,-5.9812,-5.9794,-5.9803,-5.9686,-5.9804,-5.9804,-5.9803,-5.9803,-5.9803,-5.9019,-5.9066,-5.9127,-5.9194,-5.924,-5.9292,-5.9341,-5.9382,-5.9443,-5.952,-5.954,-5.9616,-5.9677,-5.9776,-5.9816,-5.9877,-5.9869,-5.9889,-5.9894,-5.9898,-5.9898,-5.9787,-5.9891,-5.9891,-5.9891,-5.989,-5.989,0,-5.9104,-5.9145,-5.9207,-5.9284,-5.9337,-5.9343,-5.9406,-5.945,-5.9517,-5.9573,-5.9631,-5.9715,-5.9785,-5.9839,-5.991,-5.9949,-5.9955,-5.9966,-5.9963,-5.9971,-5.9901,-5.9882,-5.996,-5.996,-5.996,-5.996,-5.996,-5.996,-5.9154,-5.9234,-5.9259,-5.9362,-5.9403,-5.9477,-5.9512,-5.956,-5.9605,-5.9698,-5.9756,-5.9791,-5.9846,-5.9923,-5.9987,-6.0001,-6.0026,-6.0036,-6.005,-5.9984,-5.9976,-5.9969,-5.995,-6.0042,-6.0042,-6.0115,-6.0116,-6.0116]},{"header":{"parameterUnit":"m.s-1","parameterCategory":1,"la1":30.2991,"la2":30.254,"lo1":-89.0895,"lo2":-89.0444,"dy":0.0017,"dx":0.0017,"nx":28,"ny":28,"refTime":"2025-03-27T21:00:00:Z","depth":0,"parameterNumber":3,"parameterNumberName":"V-component_of_WINDS"},"data":[0,0,0,0,0,0,0,0,0,0,0,0,0,0,0,0,0,0,0,0,0,0,0,0,0,0,0,0,0,0,0,0,0,0,0,0,0,0,0,0,0,0,0,0,0,0,0,0,0,0,0,0,0,0,0,0,0,0,3.5403,3.5404,0,3.5489,3.5489,3.549,3.5538,3.5538,3.5538,3.5538,3.5626,3.5628,3.563,0,0,0,0,0,0,0,0,0,0,0,0,0,3.5283,3.5285,3.5403,3.5404,3.5405,3.5488,3.549,3.5491,3.5538,3.5538,3.5538,3.5538,3.5625,3.5628,3.563,0,0,0,0,0,0,0,0,0,0,0,0,0,3.5348,3.5285,3.5403,3.5439,3.5443,3.5488,3.549,3.5491,3.5538,3.5538,3.5538,3.5538,3.5624,3.5627,3.5631,3.5647,0,0,3.5641,3.5642,0,0,0,0,0,0,0,0,3.5344,3.5353,3.5432,3.5436,3.5441,3.5503,3.5479,3.5543,3.5538,3.5502,3.5538,3.5538,3.5585,3.5591,3.5607,3.5651,3.5655,3.5641,3.5643,3.5644,3.5645,0,0,0,0,0,0,0,3.534,3.5349,3.5437,3.5434,3.5439,3.5451,3.5461,3.5492,3.5541,3.5505,3.5508,3.5518,3.5587,3.5603,3.5609,3.5656,3.5641,3.5644,3.5646,3.5647,3.5721,3.5721,0,0,0,0,0,0,3.5329,3.5345,3.5434,3.544,3.5392,3.5453,3.5464,3.5483,3.5541,3.555,3.5518,3.552,3.5598,3.5605,3.5612,3.5637,3.5644,3.5647,3.5649,3.5721,3.5721,3.5721,0,0,0,0,0,0,3.5327,3.5337,3.5431,3.5393,3.5406,3.5455,3.5476,3.5484,3.5501,3.555,3.556,3.5525,3.5598,3.5608,3.5639,3.5641,3.5649,3.5652,3.5721,3.5721,3.5721,3.5685,0,0,0,0,0,0,3.5323,3.5336,3.5342,3.5393,3.5408,3.5455,3.5476,3.5486,3.5506,3.551,3.556,3.5569,3.5599,3.5633,3.5642,3.5645,3.5655,3.5721,3.5721,3.5721,3.5687,3.5684,3.5682,0,0,0,0,0,3.5319,3.5328,3.5342,3.5352,3.5417,3.5455,3.5463,3.5498,3.5506,3.5513,3.5546,3.5567,3.5639,3.5636,3.5646,3.5651,3.5721,3.5721,3.5721,3.5688,3.5685,3.5682,0,0,0,0,0,0,3.5275,3.5335,3.5351,3.5377,3.5411,3.5463,3.5472,3.5494,3.5525,3.5527,3.5569,3.558,3.5608,3.5632,3.5628,3.5671,3.5682,3.5684,3.5654,3.5651,3.5649,3.5643,3.5657,0,0,0,0,0,3.5268,3.5294,3.5345,3.5364,3.538,3.5423,3.5441,3.5465,3.5501,3.5516,3.555,3.5585,3.5616,3.5635,3.5665,3.569,3.5703,3.5699,3.5696,3.5694,3.5696,3.5713,3.5712,3.5721,3.5721,3.5721,0,0,3.5255,3.5291,3.5305,3.5356,3.5384,3.5411,3.5435,3.5461,3.5481,3.552,3.5551,3.5578,3.5619,3.5648,3.5662,3.5669,3.5696,3.5694,3.5692,3.5695,3.5713,3.5712,3.5711,3.5721,3.5721,3.5721,0,0,3.5245,3.5274,3.5293,3.5322,3.5365,3.5395,3.5399,3.5449,3.5468,3.55,3.553,3.5555,3.5607,3.5636,3.5657,3.566,3.5682,3.5669,3.5657,3.5674,3.5673,3.5673,3.5675,3.5675,3.567,3.567,3.567,0,3.5223,3.5263,3.53,3.5326,3.5348,3.5385,3.5406,3.5432,3.5483,3.5498,3.5505,3.5572,3.5602,3.5639,3.564,3.5656,3.5663,3.5664,3.567,3.567,3.567,3.5673,3.5674,3.5668,3.5669,3.5669,3.5669,0,3.5235,3.5263,3.5274,3.5323,3.5346,3.5369,3.5411,3.543,3.5453,3.5482,3.5515,3.5553,3.5594,3.5604,3.5626,3.5645,3.5648,3.5662,3.5674,3.5667,3.5671,3.5672,3.5666,3.5667,3.5667,3.5667,0,0,3.5199,3.527,3.5273,3.5297,3.5348,3.5371,3.5396,3.5436,3.5453,3.5487,3.551,3.5554,3.5568,3.5592,3.5618,3.5632,3.5634,3.5645,3.5647,3.5643,3.5659,3.5649,3.565,3.5649,3.5649,3.5649,3.5656,0,3.5197,3.5244,3.5279,3.5313,3.534,3.5376,3.5399,3.5433,3.5461,3.5489,3.552,3.5551,3.5566,3.5582,3.5597,3.563,3.5638,3.563,3.5672,3.5673,3.5661,3.5651,3.564,3.5645,3.5658,3.5658,3.5658,0,3.5201,3.5235,3.5272,3.5322,3.5335,3.5354,3.5395,3.542,3.5461,3.548,3.5508,3.5535,3.5565,3.5574,3.5617,3.561,3.563,3.5649,3.565,3.5656,3.5665,3.5658,3.5647,3.5648,3.566,3.566,3.566,0,3.5173,3.5228,3.5258,3.5276,3.5336,3.5349,3.5374,3.5415,3.5437,3.5472,3.5488,3.5525,3.5547,3.5576,3.5613,3.5616,3.5652,3.5664,3.567,3.5669,3.5676,3.5675,3.5669,3.5687,3.5687,3.5687,3.5687,0,3.5168,3.5189,3.5246,3.5264,3.529,3.5331,3.5355,3.5384,3.542,3.5445,3.5478,3.5501,3.5548,3.5577,3.5606,3.5638,3.5647,3.5664,3.5672,3.5662,3.566,3.5675,3.5676,3.5687,3.5687,3.5687,3.5687,0,3.5141,3.5179,3.5215,3.5268,3.5282,3.5299,3.5345,3.5365,3.5395,3.5427,3.5437,3.5484,3.5521,3.556,3.5609,3.5629,3.5659,3.567,3.5646,3.565,3.5654,3.5654,3.5659,3.5662,3.5676,3.5676,3.5676,0,3.5135,3.5153,3.5209,3.5228,3.5253,3.5284,3.5307,3.5348,3.5371,3.5419,3.5434,3.5472,3.5506,3.5562,3.5601,3.564,3.5652,3.5651,3.5658,3.5648,3.5654,3.5652,3.5655,3.5649,3.5649,3.5648,3.5648,0,3.5122,3.5141,3.5173,3.5213,3.524,3.5273,3.5307,3.5321,3.5369,3.5394,3.5431,3.5457,3.5508,3.5547,3.559,3.5617,3.5641,3.5646,3.5649,3.564,3.5626,3.5635,3.5641,3.5646,3.5646,3.5646,3.5646,3.5646,3.5107,3.5125,3.5168,3.5203,3.5234,3.5265,3.5287,3.5321,3.5353,3.5397,3.542,3.5458,3.55,3.5561,3.5587,3.5618,3.5625,3.563,3.5631,3.5632,3.563,3.562,3.5626,3.5626,3.5626,3.5626,3.5626,0,3.5097,3.5127,3.5159,3.5206,3.5235,3.5255,3.5294,3.5317,3.5349,3.5386,3.5419,3.5463,3.5501,3.5544,3.5584,3.5601,3.5613,3.5611,3.561,3.5616,3.562,3.5614,3.56,3.56,3.56,3.56,3.56,3.56,3.5095,3.5128,3.5152,3.52,3.523,3.5267,3.5288,3.5318,3.5348,3.5396,3.5427,3.5455,3.5495,3.5539,3.5575,3.5587,3.5601,3.5595,3.561,3.5614,3.5616,3.5618,3.5612,3.5598,3.5598,3.5604,3.5604,3.5604]}]]